Regional Weather Roundup
Issued by NWS Memphis, TN

Home | Current Version | Previous Version | Text Only | Print | Product List | Glossary On
Versions: 1 2 3 4 5 6 7 8 9 10 11 12 13 14 15 16 17 18 19 20 21 22 23 24 25 26 27 28 29 30 31 32 33 34 35 36 37 38 39 40 41 42 43 44 45 46 47 48 49 50
000
ASUS44 KMEG 292210
RWRMEG
MEMPHIS CWA HOURLY WEATHER ROUNDUP
NATIONAL WEATHER SERVICE MEMPHIS TN
500 PM CDT SUN MAR 29 2015

...WEST TENNESSEE...

CITY           SKY/WX    TMP DP  RH WIND       PRES   REMARKS
MEMPHIS INTL   SUNNY     70  47  43 S16G25    30.03F
NWS MEMPHIS      N/A     69 N/A N/A MISG        N/A
JACKSON        SUNNY     65  40  39 S9G22     30.05F
LEXINGTON      SUNNY     61  39  44 S15G24    30.06F
SAVANNAH       SUNNY     63  41  45 S13       30.10F
DYERSBURG      SUNNY    N/A N/A N/A S15       30.02F
UNION CITY     SUNNY     61  46  59 S15       30.00F
PARIS          SUNNY     59  39  47 S15       30.03F
HUNTINGDON     SUNNY     61  37  40 S10G20    30.05


...EASTERN ARKANSAS...

CITY           SKY/WX    TMP DP  RH WIND       PRES   REMARKS
JONESBORO      SUNNY     61  48  62 SW18G25   30.01F
WEST MEMPHIS   SUNNY     67  52  58 S16       30.02F
BATESVILLE     SUNNY     66  46  48 S10G17    30.00S
NEWPORT        SUNNY     65  52  62 S16       30.01F
BLYTHEVILLE    SUNNY     63  46  54 S16       30.01F
SEARCY         SUNNY     69  53  56 SE12      30.01F
STUTTGART      SUNNY     72  55  56 SE14      30.01F
PINE BLUFF     SUNNY     76  55  48 SW14      30.00F
MONTICELLO     SUNNY     78  54  43 SW15      30.03S


...NORTH MISSISSIPPI...

CITY           SKY/WX    TMP DP  RH WIND       PRES   REMARKS
TUPELO         SUNNY     66  43  43 S15       30.12F
OXFORD         SUNNY     68  46  45 S10G20    30.08F
OLIVE BRANCH   SUNNY     68  48  49 S15G23    30.04F
TUNICA         SUNNY     70  54  56 S18G24    30.05F
CLARKSDALE     SUNNY     72  54  53 S15G21    30.05F
CORINTH        SUNNY     64  41  42 S15       30.09F
GREENWOOD      SUNNY     76  48  37 S13       30.07F
COLUMBUS       SUNNY     69  43  39 S14G21    30.13F
STARKVILLE     FAIR      72  45  37 S12       30.12F
GOLDEN TRIANGL SUNNY     70  46  43 SE15G21   30.14F


...SOUTHEAST MISSOURI...

CITY           SKY/WX    TMP DP  RH WIND       PRES   REMARKS
WEST PLAINS    PTSUNNY   62  42  47 W7        30.00S
POPLAR BLUFF   PTSUNNY   58  45  62 SW16      30.00F
CAPE GIRARDEAU CLOUDY    56  45  66 SW17G25   30.01S


...NORTHWEST ALABAMA...

CITY           SKY/WX    TMP DP  RH WIND       PRES   REMARKS
MUSCLE SHOALS  CLOUDY    63  38  39 S16       30.14F


...MIDDLE TENNESSEE...

CITY           SKY/WX    TMP DP  RH WIND       PRES   REMARKS
NASHVILLE      PTSUNNY   62  32  32 S15G28    30.10F
CLARKSVILLE    MOSUNNY   61  34  36 S20G28    30.03F
COLUMBIA       MOSUNNY   61  37  41 S13       30.10F


...WESTERN KENTUCKY...

CITY           SKY/WX    TMP DP  RH WIND       PRES   REMARKS
PADUCAH        MOSUNNY   60  40  47 SW15G28   29.98F
FORT CAMPBELL  PTSUNNY   62  37  38 S21       30.02F HAZE


...CENTRAL ARKANSAS...

CITY           SKY/WX    TMP DP  RH WIND       PRES   REMARKS
LITTLE ROCK    MOSUNNY   79  47  32 SW12      29.97F


SKY/WX REPORTED AS FAIR MEANS FEW OR NO CLOUDS BELOW
12 THOUSAND FEET.




USA.gov is the U.S. government's official web portal to all federal, state and local government web resources and services.